Flag for Canada Weather past 2 weeks in Kirkland Lake, Ontario, Canada

Now
37 °F

Overcast.


Feels Like: 34 °F
Forecast: 34 / 52 °F
Wind: 5 mph from Northwest

Location: Earlton

Current Time: Sep 17, 2014 at 10:11:34 PM

Latest Report: Sep 17, 2014 at 9:00 PM


Visibility: 9 mi

Pressure: 30.07 "Hg

Humidity: 93%

Dew point: 36 °F

Location of Kirkland LakeLocation

Historic Weather in Kirkland Lake — Graph

°F

Kirkland Lake temperature yesterday

Maximum temperature yesterday: 63 °F (at 4:00 PM)
Minimum temperature yesterday: 39 °F (at 1:00 AM)
Average temperature yesterday: 49 °F

Past Weeks' High & Low Weather Summary

 TemperatureHumidityPressure
High75 °F (Sep 3, 4:00 PM)100% (Sep 4, 9:00 PM)30.37 "Hg (Sep 4, 9:00 PM)
Low34 °F (Sep 14, 12:00 AM)42% (Sep 16, 4:00 PM)29.33 "Hg (Sep 11, 2:00 AM)
Average53 °F85%30.02 "Hg
* Reported Sep 2 9:00 PM — Sep 17 9:00 PM, Kirkland Lake, Weather by CustomWeather, © 2014

Note: Actual official high and low records may vary slightly from our data, if they occured in-between our weather recording intervals... More about our weather records

Advertising

Kirkland Lake weather history for previous 24 hours

 ConditionsComfort  
Time TempWeatherWind HumidityBarometerVisibility
9:00 PM
Sep 17
37 °FOvercast.5 mph93%30.07 "Hg9 mi
8:00 PM37 °FPassing clouds.5 mph93%30.06 "Hg9 mi
7:00 PM39 °FCloudy.3 mph87%30.04 "Hg9 mi
6:00 PM39 °FMostly cloudy.6 mph87%30.03 "Hg9 mi
5:00 PM39 °FOvercast.6 mph87%30.02 "Hg9 mi
4:00 PM39 °FOvercast.6 mph87%30.02 "Hg9 mi
3:00 PM37 °FLight rain. Mostly cloudy.8 mph93%30.03 "Hg9 mi
2:00 PM36 °FLight freezing rain. Mostly cloudy.9 mph100%30.03 "Hg9 mi
1:51 PM36 °FLight freezing rain. Mostly cloudy.9 mph100%30.03 "Hg9 mi
1:00 PM39 °FLight rain. Mostly cloudy.7 mph87%30.03 "Hg9 mi
12:00 PM41 °FLight rain. Mostly cloudy.6 mph81%30.03 "Hg9 mi
11:00 AM41 °FMore clouds than sun.8 mph87%30.03 "Hg9 mi
10:00 AM41 °FOvercast.5 mph87%30.03 "Hg9 mi
9:00 AM39 °FMostly cloudy.5 mph93%30.04 "Hg9 mi
8:00 AM39 °FOvercast.6 mph93%30.03 "Hg9 mi
7:00 AM39 °FMostly cloudy.5 mph93%30.02 "Hg9 mi
6:00 AM39 °FOvercast.6 mph93%30.01 "Hg9 mi
5:00 AM41 °FOvercast.5 mph87%30.01 "Hg9 mi
4:00 AM41 °FMostly cloudy.5 mph93%30.01 "Hg9 mi
3:00 AM41 °FLight rain. Overcast.6 mph93%30.01 "Hg9 mi
2:57 AM41 °FLight rain. Overcast.6 mph93%30.01 "Hg9 mi
2:00 AM43 °FMostly cloudy.8 mph93%30.00 "Hg9 mi
1:59 AM43 °FMostly cloudy.7 mph93%30.01 "Hg9 mi
1:00 AM43 °FLight rain. Mostly cloudy.5 mph93%30.01 "Hg9 mi
12:00 AM43 °FLight rain. Overcast.9 mph87%29.99 "Hg9 mi
11:49 PM
Sep 16
43 °FLight rain. Mostly cloudy.10 mph93%29.98 "Hg9 mi
11:04 PM45 °FLight rain. Fog.10 mph100%29.96 "Hg6 mi
10:55 PM46 °FLight rain. Fog.12 mph93%29.96 "Hg5 mi
10:00 PM50 °FMostly cloudy.5 mph94%29.94 "Hg9 mi
Weather by CustomWeather, © 2014

See weather overviewHow to use our weather pages